Location: *
(49.5667°N, 1.3667°W)
Time: 19:14:54
(UTC+00:00)

Cosmos 1943 - Pass Details

Date: 20 September 2019
Orbit: 833 x 851 km, 71.0° (Epoch: 15 October)

Event Time Altitude Azimuth Distance (km) Brightness Sun altitude
Rises 20:43:43 0° 333° (NNW) 3,428 7.3 -24.5°
Reaches altitude 10° 20:46:19 10° 340° (NNW) 2,487 6.3 -24.8°
Maximum altitude 20:51:45 43° 52° (NE) 1,184 3.8 -25.6°
Enters shadow 20:51:55 43° 57° (ENE) 1,186 3.7 -25.6°
